Regional Weather Roundup
Issued by NWS

Home | Current Version | Previous Version | Graphics & Text | Print | Product List | Glossary On
Versions: 1 2 3 4 5 6 7 8 9 10 11 12 13 14 15 16 17 18 19 20 21 22 23 24 25 26 27 28
000
ASUS45 KCYS 210010
RWRWY

WYOMING REGIONAL WEATHER ROUNDUP
NATIONAL WEATHER SERVICE CHEYENNE WY
500 PM MST MON FEB 20 2017

NOTE:  "FAIR" INDICATES FEW OR NO CLOUDS BELOW 12,000 FEET
WITH NO SIGNIFICANT WEATHER AND/OR OBSTRUCTIONS TO VISIBILITY.

WYZ001-210100-
YELLOWSTONE NATIONAL PARK

CITY           SKY/WX    TMP DP  RH WIND       PRES   REMARKS
LK YELLOWSTONE   N/A     31  30  96 VRB5      29.85R WCI  26
6HR MIN TEMP:  29; 6HR MAX TEMP:  32; 6HR PCP:  0.18;

W YELLOWSTONE  NOT AVBL

$$
WYZ002>013-054>058-071-098>099-210100-
NORTHERN WYOMING

CITY           SKY/WX    TMP DP  RH WIND       PRES   REMARKS
JACKSON        CLOUDY    34  32  93 S16       29.93R WCI  23
CODY           FAIR      47  30  51 SW16G22   29.78F
GREYBULL       FAIR      51  30  44 SE7       29.75S
6HR MIN TEMP:  41; 6HR MAX TEMP:  54;

WORLAND        FAIR      53  33  46 CALM      29.77R
6HR MIN TEMP:  45; 6HR MAX TEMP:  55;

SHERIDAN       FAIR      57  23  26 SW15G26   29.70R
6HR MIN TEMP:  50; 6HR MAX TEMP:  61;

BUFFALO        FAIR      55  22  27 S12G18    29.77R
6HR MIN TEMP:  51; 6HR MAX TEMP:  62;

GILLETTE       FAIR      57  23  26 SW24G30   29.75S
6HR MIN TEMP:  50; 6HR MAX TEMP:  59;

HULETT         FAIR      55  27  33 S16G22    29.77S
NEWCASTLE      FAIR      54  27  35 SW9       29.84S

$$
WYZ014>020-022>026-101>103-210100-
CENTRAL WYOMING

CITY           SKY/WX    TMP DP  RH WIND       PRES   REMARKS
BIG PINEY      CLOUDY    31  28  89 SE13      29.99F WCI  21
6HR MIN TEMP:  20; 6HR MAX TEMP:  32;

PINEDALE       CLOUDY    32  28  86 SE10      30.01F WCI  24
DUBOIS         CLOUDY    37  27  65 W23G35    29.87R WCI  26
LANDER         FAIR      46  29  51 SW23G43   29.85R
6HR MIN TEMP:  44; 6HR MAX TEMP:  55;

RIVERTON       FAIR      47  28  47 SW16G23   29.90R
6HR MIN TEMP:  37; 6HR MAX TEMP:  51;

CASPER         FAIR      50  30  46 SW25G38   29.92R
6HR MIN TEMP:  47; 6HR MAX TEMP:  53; 6HR PCP: TRACE;

DOUGLAS        FAIR      52  27  38 W29G37    29.89F
6HR MIN TEMP:  52; 6HR MAX TEMP:  57;


$$
WYZ021-027>030-104>119-210100-
SOUTHERN WYOMING

CITY           SKY/WX    TMP DP  RH WIND       PRES   REMARKS
EVANSTON       CLOUDY    39  28  64 SW9       30.00S WCI  33
6HR MIN TEMP:  36; 6HR MAX TEMP:  41;

KEMMERER         N/A     37  30  75 SW10      30.00S WCI  30
FORT BRIDGER   MOCLDY    42  32  68 E5        30.03F
ROCK SPRINGS   FAIR      40  29  64 SE15      30.02F WCI  32
6HR MIN TEMP:  38; 6HR MAX TEMP:  46;

DIXON            N/A     42  33  69 SW8       30.12F
RAWLINS        FAIR      41  29  62 SW32G43   30.02R
6HR MIN TEMP:  37; 6HR MAX TEMP:  45;

SARATOGA       FAIR      45  27  49 S18       30.08F
LARAMIE        MOCLDY    45  20  36 S14       30.05R
6HR MIN TEMP:  44; 6HR MAX TEMP:  48;

CHEYENNE       FAIR      52  17  25 SW16G23   30.01R
6HR MIN TEMP:  49; 6HR MAX TEMP:  55;

TORRINGTON     FAIR      60  20  21 W12       29.92R
6HR MIN TEMP:  54; 6HR MAX TEMP:  63;

PINE BLUFFS    FAIR      55  18  22 NW20G29   29.98R

$$




USA.gov is the U.S. government's official web portal to all federal, state and local government web resources and services.